Philip, SD

9:01 AM MDT on April 25, 2017 (GMT -0600)
Philip

Weather History for KPHP - November, 2013

Change the Weather History Date:

Sunday, November 24, 2013

  Actual Average Record
Temperature  
Mean Temperature 34 °F 30 °F  
Max Temperature 48 °F 43 °F 71 °F (2011)
Min Temperature 19 °F 17 °F -7 °F (1950)
Degree Days  
Heating Degree Days 31 35  
Month to date heating degree days 725 708  
Since 1 July heating degree days 1308 1411  
Cooling Degree Days 0 0  
Month to date cooling degree days 0 0  
Year to date cooling degree days 945 818  
Moisture  
Dew Point 19 °F    
Average Humidity 58    
Maximum Humidity 81    
Minimum Humidity 34    
Precipitation  
Precipitation 0.00 in 0.02 in 0.24 in (1992)
Month to date precipitation 0.41 0.54  
Year to date precipitation 15.27 16.84  
Sea Level Pressure  
Sea Level Pressure 30.12 in    
Wind  
Wind Speed 10 mph (WSW)    
Max Wind Speed 25 mph    
Max Gust Speed 32 mph    
Visibility 10 miles    
Events      
T = Trace of Precipitation, MM = Missing Value Source: NWS Daily Summary

Daily Weather History Graph

Daily Weather History Graph

Search for Another Location

Airport or City:

Trip Planner

Search our weather history database for the weather conditions in past years. The results will help you decide how hot, cold, wet, or windy it might be!

Date:

Astronomy

Nov. 24, 2013 Rise Set
Actual Time 6:53 AM MST 4:12 PM MST
Civil Twilight 6:21 AM MST 4:44 PM MST
Nautical Twilight 5:45 AM MST 5:20 PM MST
Astronomical Twilight 5:11 AM MST 5:54 PM MST
Moon 10:47 PM MST (11/24) 11:35 AM MST (11/24)
Length of Visible Light 10h 23m
Length of Day
9h 19m
Waning Gibbous, 60% of the Moon is Illuminated
Nov 24
Waning Gibbous
Nov 25
Last Quarter
Dec 2
New
Dec 9
First Quarter
Dec 17
Full

Hourly Weather History & Observations

Time (MST) Temp. Windchill Dew Point Humidity Pressure Visibility Wind Dir Wind Speed Gust Speed Precip Events Conditions
12:55 AM 21.0 °F - 12.0 °F 68% 30.38 in 10.0 mi Calm Calm - N/A   Clear
1:55 AM 25.0 °F - 14.0 °F 63% 30.36 in 10.0 mi Calm Calm - N/A   Clear
2:55 AM 21.0 °F - 12.9 °F 71% 30.32 in 10.0 mi Calm Calm - N/A   Clear
3:55 AM 25.0 °F 17.1 °F 14.0 °F 63% 30.28 in 10.0 mi SW 6.9 mph - N/A   Clear
4:55 AM 24.1 °F 18.2 °F 14.0 °F 65% 30.27 in 10.0 mi SSW 4.6 mph - N/A   Clear
5:55 AM 21.0 °F 14.6 °F 12.9 °F 71% 30.25 in 10.0 mi South 4.6 mph - N/A   Clear
6:55 AM 21.9 °F 14.5 °F 12.9 °F 68% 30.24 in 10.0 mi SW 5.8 mph - N/A   Clear
7:55 AM 28.0 °F 21.7 °F 17.1 °F 63% 30.21 in 10.0 mi SW 5.8 mph - N/A   Clear
8:55 AM 36.0 °F 28.0 °F 18.0 °F 48% 30.17 in 10.0 mi SW 11.5 mph - N/A   Clear
9:55 AM 41.0 °F 31.4 °F 17.1 °F 38% 30.13 in 10.0 mi SW 21.9 mph 26.5 mph N/A   Clear
10:55 AM 44.1 °F 35.7 °F 19.0 °F 37% 30.08 in 10.0 mi SSW 20.7 mph 31.1 mph N/A   Clear
11:55 AM 46.0 °F 38.5 °F 19.9 °F 35% 30.02 in 10.0 mi SW 19.6 mph 31.1 mph N/A   Clear
12:55 PM 48.0 °F - 21.9 °F 36% 30.00 in 10.0 mi SW 18.4 mph 24.2 mph N/A   Clear
1:55 PM 46.9 °F - 21.0 °F 36% 29.98 in 10.0 mi WSW 21.9 mph 26.5 mph N/A   Clear
2:55 PM 44.1 °F 37.1 °F 21.9 °F 42% 29.99 in 10.0 mi WSW 15.0 mph - N/A   Clear
3:55 PM 41.0 °F 35.2 °F 21.9 °F 47% 29.98 in 10.0 mi WSW 9.2 mph - N/A   Clear
4:55 PM 35.1 °F 27.4 °F 21.9 °F 59% 29.97 in 10.0 mi WSW 10.4 mph - N/A   Clear
5:55 PM 33.1 °F 25.5 °F 21.9 °F 64% 29.99 in 10.0 mi West 9.2 mph - N/A   Clear
6:55 PM 30.9 °F 22.2 °F 21.9 °F 69% 30.00 in 10.0 mi West 10.4 mph - N/A   Clear
7:55 PM 27.0 °F 18.0 °F 21.0 °F 78% 30.01 in 10.0 mi West 9.2 mph - N/A   Clear
8:55 PM 27.0 °F 18.7 °F 21.0 °F 78% 30.03 in 10.0 mi West 8.1 mph - N/A   Clear
9:55 PM 28.0 °F 24.2 °F 21.0 °F 75% 30.04 in 10.0 mi WSW 3.5 mph - N/A   Clear
10:55 PM 34.0 °F 28.0 °F 23.0 °F 64% 30.05 in 10.0 mi West 6.9 mph - N/A   Mostly Cloudy
11:55 PM 37.9 °F 30.0 °F 23.0 °F 55% 30.04 in 10.0 mi NW 12.7 mph - N/A   Overcast